CAPE
0 0 0 0 0 0 1 36 5 3 160 155 291 597 888 1205 1260 582 1076 86 835 893 1220 1233 992 789 571 379 147 46 31 34 156 590 904 1131 1177 1111 989 855 717 646 870 984 946 913 950 816 935
0 0 0 0 0 0 0 3 0 2 46 678 619 641 838 1101 1169 1467 1650 1462 1355 1365 1241 1390 998 866 794 654 381 204 104 68 50 58 95 191 326 419 483 539 607 670 797 898 933 937 857 751 764
0 0 0 0 0 4 11 21 0 29 100 112 629 1219 1015 855 634 1130 1724 1673 1730 1411 1468 1302 1209 1142 1124 1023 900 712 620 559 493 418 220 119 83 87 107 195 339 496 653 794 807 712 589 495 549
0 0 0 0 0 0 94 44 0 10 142 46 537 624 955 711 1006 819 1320 1666 1620 1089 1179 1675 1529 1360 1191 1101 1017 974 907 911 850 713 556 454 389 276 186 104 85 105 170 248 438 649 731 722 616
0 0 0 1 5 32 41 15 0 0 0 5 508 685 1129 1306 816 395 799 1507 1396 914 1009 1624 1470 1191 943 843 793 845 867 880 877 797 762 692 549 441 423 423 362 329 303 320 362 472 680 761 848
0 0 0 2 0 2 160 34 0 0 0 0 633 883 1043 1545 1287 925 1106 1310 817 817 922 969 893 994 1239 1216 1133 1012 746 529 120 17 49 172 396 398 287 357 360 543 672 652 598 501 433 348 453
0 0 0 0 1 0 0 78 5 4 0 0 9 802 753 1316 1402 767 468 491 484 1047 1271 1112 996 148 10 0 0 0 0 0 0 0 0 0 0 16 167 145 413 241 68 101 156 360 531 447 430
0 0 0 0 1 11 14 94 2 0 0 0 10 607 839 620 719 288 300 363 1167 1551 1430 823 172 0 0 0 0 0 0 0 0 0 0 0 0 0 0 0 0 0 0 0 0 0 4 30 62
0 0 0 6 13 49 1 101 4 0 0 0 235 767 615 729 382 136 138 386 473 247 110 0 0 0 0 0 0 0 0 0 0 0 0 0 0 0 0 0 0 0 0 0 0 0 4 42 316
0 0 0 0 0 8 1 53 28 1 0 0 68 481 240 210 118 39 46 108 50 8 0 0 0 0 0 0 0 0 0 0 0 0 0 0 0 0 0 0 0 0 0 0 0 0 0 167 547
0 0 0 0 0 0 0 29 28 0 0 0 1 182 103 138 161 2 6 0 0 0 0 0 0 0 0 0 0 0 0 0 0 0 0 0 0 0 0 0 0 0 0 0 0 0 0 0 14
0 0 0 0 0 0 0 51 1 0 0 0 3 104 80 112 45 0 0 0 0 0 2 5 0 0 0 0 0 0 0 0 0 0 0 0 0 0 0 0 0 0 0 0 0 0 0 0 0
0 0 0 0 0 0 0 0 0 0 0 0 0 45 72 114 8 1 1 0 8 7 0 40 44 26 0 0 0 0 0 0 0 0 0 0 0 0 0 0 0 0 0 0 0 0 0 0 0
0 0 0 0 0 0 0 0 0 0 0 0 0 6 27 67 38 139 77 18 103 78 19 50 28 24 22 0 0 0 0 0 0 0 0 0 0 0 0 0 0 0 0 0 0 0 0 0 0
0 0 0 0 0 0 0 0 0 0 0 0 0 0 15 96 105 138 83 86 197 160 80 31 43 8 1 0 0 0 0 0 0 0 0 0 0 0 0 0 0 0 0 0 0 0 0 0 0
0 0 0 0 0 0 0 0 0 0 0 0 0 0 0 48 168 133 166 162 187 156 82 22 8 0 0 0 0 0 0 0 0 0 0 0 0 0 0 0 0 0 7 0 0 4 1 0 0
0 0 0 0 0 0 0 0 0 0 0 0 0 0 0 62 197 241 114 172 310 250 112 9 0 0 0 0 0 0 0 0 0 0 0 0 0 0 0 0 0 11 2 9 4 27 0 0 0
0 0 0 0 0 0 0 0 0 0 0 0 0 0 0 66 320 233 197 257 292 251 68 0 0 0 0 0 0 0 0 0 0 0 0 0 0 0 0 14 13 1 0 0 12 18 6 11 10
0 0 0 2 0 0 0 0 0 0 17 0 0 0 0 63 323 247 287 303 315 133 0 0 0 0 0 0 0 0 0 0 0 0 0 0 0 0 0 0 0 0 0 0 11 30 48 32 29
0 0 0 6 0 0 0 0 0 0 11 3 0 0 0 233 347 321 348 341 298 11 0 0 0 0 0 0 0 0 0 0 0 0 0 0 0 0 0 0 0 0 12 18 6 29 11 8 18
0 0 0 6 7 0 0 0 0 0 2 25 0 0 2 340 359 454 480 367 142 5 0 0 0 0 0 0 0 0 0 0 0 0 0 2 0 3 0 8 12 2 2 3 14 26 17 15 6
0 0 0 0 0 0 0 0 5 69 39 3 8 13 134 267 466 478 458 185 13 0 0 0 0 0 0 0 0 0 0 0 0 0 0 1 12 6 22 8 9 20 17 8 13 7 7 7 0
0 0 0 0 0 0 0 0 0 37 209 46 6 100 173 264 307 425 275 69 2 0 0 0 1 0 0 0 0 0 0 0 0 0 1 11 2 1 13 6 4 1 8 12 8 16 17 14 8
0 0 0 0 0 0 2 0 0 18 48 5 47 94 140 222 245 185 0 0 0 1 0 12 5 0 0 0 0 0 0 0 0 7 3 0 0 7 2 3 5 15 0 8 13 20 9 3 4
0 0 0 10 31 1 5 0 0 16 36 0 191 100 50 139 36 32 44 17 10 11 1 2 8 5 0 5 12 3 0 0 0 0 0 0 1 0 2 6 6 11 3 5 13 12 2 9 4
0 60 3 0 0 14 8 23 0 0 0 0 0 0 119 63 1 4 6 11 29 43 24 14 5 7 0 5 0 7 4 0 0 0 0 0 4 1 11 0 5 5 1 10 8 0 3 13 1
0 7 11 62 22 1 20 12 0 0 0 0 0 0 0 0 23 15 19 14 3 0 3 0 1 0 6 0 2 0 0 0 0 0 0 12 5 10 0 5 5 1 0 8 0 0 0 6 4
0 0 0 1 11 16 11 28 0 0 1 0 0 0 0 0 0 4 0 1 10 13 16 8 2 13 6 2 0 0 0 0 0 0 1 2 5 9 3 17 6 2 0 0 0 0 0 1 7
9 26 11 20 36 44 29 48 1 0 0 0 0 0 0 0 0 1 13 18 4 11 18 11 13 16 6 0 0 0 0 0 0 4 12 6 4 10 4 6 3 0 0 0 0 0 0 0 0
0 0 1 0 0 4 42 30 0 0 0 0 0 0 0 0 1 7 7 7 2 0 0 0 0 8 0 0 0 0 1 0 1 1 7 6 5 5 9 0 0 2 2 0 0 0 0 0 0
CIN
-0 -0 -0 -0 -0 -0 -9 -31 -2 -59 -50 -50 -25 -46 -63 -45 -15 -24 -95 -244 -111 -88 -111 -116 -136 -155 -167 -197 -248 -305 -330 -304 -211 -126 -91 -54 -42 -45 -59 -71 -79 -82 -45 -22 -21 -26 -22 -31 -23
-0 -0 -0 -0 -0 -0 -0 -9 -0 -12 -38 -4 -8 -25 -40 -14 -12 -1 -4 -21 -6 -44 -64 -96 -139 -135 -128 -136 -168 -199 -227 -254 -264 -249 -212 -184 -148 -131 -116 -102 -89 -79 -59 -38 -27 -15 -23 -36 -33
-0 -0 -0 -0 -0 -1 -10 -156 -0 -14 -26 -12 -32 -12 -9 -7 -58 -8 -2 -15 -22 -47 -76 -105 -106 -98 -88 -87 -99 -126 -132 -140 -146 -149 -189 -202 -213 -202 -199 -168 -138 -106 -84 -66 -58 -62 -63 -71 -58
-0 -0 -0 -0 -0 -33 -16 -82 -1 -47 -2 -10 -24 -59 -22 -11 -23 -39 -18 -6 -31 -47 -83 -71 -75 -75 -79 -84 -90 -86 -91 -87 -90 -100 -127 -133 -146 -162 -174 -182 -188 -172 -147 -127 -101 -78 -65 -58 -66
-0 -0 -0 -12 -1 -25 -11 -80 -0 -0 -0 -58 -9 -42 -3 -2 -49 -68 -40 -19 -14 -85 -92 -68 -82 -94 -109 -116 -116 -100 -90 -86 -81 -89 -91 -99 -116 -123 -125 -123 -133 -133 -131 -123 -107 -87 -64 -56 -48
-0 -0 -0 -21 -0 -2 -44 -110 -0 -0 -0 -0 -2 -17 -3 -3 -8 -15 -10 -20 -32 -87 -94 -107 -117 -104 -76 -84 -80 -74 -95 -120 -78 -122 -92 -172 -110 -103 -115 -98 -110 -97 -85 -83 -85 -92 -93 -92 -75
-0 -0 -0 -3 -20 -0 -2 -126 -262 -298 -0 -0 -3 -18 -11 -6 -13 -7 -21 -129 -200 -30 -61 -67 -83 -133 -65 -0 -0 -0 -0 -0 -0 -0 -0 -0 -0 -32 -116 -124 -93 -115 -197 -150 -144 -108 -94 -93 -90
-0 -0 -0 -0 -6 -33 -17 -75 -9 -0 -0 -0 -1 -20 -15 -11 -8 -13 -10 -2 -8 -13 -11 -35 -138 -0 -0 -0 -0 -0 -0 -0 -0 -0 -0 -0 -0 -0 -0 -0 -0 -0 -0 -0 -0 -0 -238 -181 -160
-0 -0 -0 -9 -18 -11 -4 -23 -69 -0 -0 -0 -4 -10 -25 -11 -15 -90 -60 -3 -4 -21 -51 -0 -0 -0 -0 -0 -0 -0 -0 -0 -0 -0 -0 -0 -0 -0 -0 -0 -0 -0 -0 -0 -0 -0 -173 -168 -104
-0 -0 -0 -0 -0 -6 -3 -10 -19 -3 -0 -0 -41 -20 -69 -77 -73 -69 -62 -70 -141 -81 -0 -0 -0 -0 -0 -0 -0 -0 -0 -0 -0 -0 -0 -0 -0 -0 -0 -0 -0 -0 -0 -0 -0 -0 -0 -72 -71
-0 -0 -0 -0 -0 -0 -0 -5 -36 -0 -0 -0 -3 -54 -106 -74 -22 -4 -6 -1 -0 -0 -0 -0 -0 -0 -0 -0 -0 -0 -0 -0 -0 -0 -0 -0 -0 -0 -0 -0 -0 -0 -0 -0 -0 -0 -0 -0 -4
-0 -0 -0 -0 -0 -0 -0 -9 -29 -0 -0 -0 -37 -46 -84 -62 -54 -0 -0 -0 -0 -0 -286 -404 -0 -0 -0 -0 -0 -0 -0 -0 -0 -0 -0 -0 -0 -0 -0 -0 -0 -0 -0 -0 -0 -0 -0 -0 -0
-0 -0 -0 -0 -0 -0 -0 -0 -0 -0 -0 -0 -0 -54 -56 -17 -76 -18 -15 -0 -275 -323 -0 -348 -346 -356 -0 -0 -0 -0 -0 -0 -0 -0 -0 -0 -0 -0 -0 -0 -0 -0 -0 -0 -0 -0 -0 -0 -0
-0 -0 -0 -0 -0 -0 -0 -0 -0 -0 -0 -0 -2 -48 -33 -10 -45 -94 -124 -195 -242 -297 -338 -316 -352 -366 -246 -0 -0 -0 -0 -0 -0 -0 -0 -0 -0 -0 -0 -0 -0 -0 -0 -0 -0 -0 -0 -0 -0
-0 -0 -0 -0 -0 -0 -0 -0 -0 -0 -0 -0 -0 -0 -32 -18 -26 -107 -136 -211 -244 -287 -318 -384 -381 -194 -24 -0 -0 -0 -0 -0 -0 -0 -0 -0 -0 -0 -0 -0 -0 -0 -0 -0 -0 -0 -0 -0 -0
-0 -0 -0 -0 -0 -0 -0 -0 -0 -0 -0 -0 -0 -0 -0 -23 -25 -81 -138 -182 -225 -282 -293 -369 -405 -0 -0 -0 -0 -0 -0 -0 -0 -0 -0 -0 -0 -0 -0 -0 -0 -0 -2 -0 -0 -1 -0 -0 -0
-0 -0 -0 -0 -0 -0 -0 -0 -0 -0 -0 -0 -0 -0 -0 -19 -12 -65 -136 -150 -150 -180 -240 -184 -0 -0 -0 -0 -0 -0 -0 -0 -0 -0 -0 -0 -0 -0 -0 -0 -1 -1 -2 -1 -3 -2 -0 -0 -0
-0 -0 -0 -0 -0 -0 -0 -0 -0 -0 -0 -0 -0 -0 -0 -7 -23 -110 -115 -87 -119 -142 -246 -0 -0 -0 -0 -0 -0 -0 -0 -0 -0 -0 -0 -0 -0 -0 -0 -3 -4 -2 -0 -0 -2 -4 -9 -4 -1
-0 -0 -0 -9 -3 -0 -0 -0 -0 -0 -142 -0 -0 -0 -0 -11 -42 -92 -85 -91 -81 -165 -0 -0 -0 -0 -0 -0 -0 -0 -0 -0 -0 -0 -0 -0 -0 -0 -0 -0 -0 -0 -0 -0 -1 -2 -2 -3 -4
-0 -0 -0 -6 -0 -0 -0 -0 -0 -0 -103 -37 -0 -0 -0 -12 -38 -47 -36 -51 -77 -70 -0 -0 -0 -0 -0 -0 -0 -0 -0 -0 -0 -0 -0 -0 -0 -0 -0 -0 -0 -1 -1 -1 -1 -2 -10 -12 -8
-0 -0 -0 -6 -14 -0 -0 -0 -0 -0 -8 -113 -0 -0 -21 -18 -25 -22 -7 -27 -77 -14 -0 -0 -0 -0 -0 -0 -0 -0 -0 -0 -0 -0 -0 -1 -0 -3 -0 -5 -7 -14 -8 -5 -4 -2 -6 -4 -6
-0 -0 -0 -0 -0 -0 -0 -0 -11 -14 -60 -137 -103 -89 -56 -28 -14 -2 -7 -56 -25 -0 -0 -0 -0 -0 -0 -0 -0 -0 -0 -0 -0 -0 -0 -0 -2 -8 -8 -19 -21 -19 -24 -12 -8 -27 -33 -21 -19
-0 -0 -0 -0 -0 -0 -0 -0 -0 -17 -27 -58 -116 -68 -39 -19 -8 -9 -13 -17 -24 -0 -0 -0 -7 -0 -0 -0 -0 -0 -0 -0 -0 -0 -0 -1 -2 -0 -13 -25 -26 -19 -23 -7 -4 -5 -3 -9 -9
-0 -0 -0 -0 -0 -0 -18 -0 -0 -46 -59 -21 -35 -34 -41 -7 -17 -11 -0 -0 -0 -17 -1 -6 -17 -0 -0 -0 -0 -0 -0 -0 -0 -2 -12 -0 -1 -3 -20 -19 -32 -18 -29 -6 -1 -1 -3 -6 -8
-0 -0 -0 -2 -18 -25 -37 -0 -0 -3 -12 -0 -8 -6 -7 -12 -13 -27 -8 -14 -2 -3 -17 -42 -72 -72 -0 -35 -32 -11 -0 -0 -0 -0 -0 -0 -2 -13 -26 -46 -32 -2 -1 -7 -3 -2 -3 -5 -7
-0 -10 -4 -1 -2 -12 -23 -14 -0 -0 -0 -0 -0 -1 -4 -9 -3 -41 -44 -20 -31 -19 -48 -26 -31 -61 -0 -15 -1 -4 -3 -0 -0 -0 -0 -4 -6 -5 -3 -6 -8 -11 -1 -2 -2 -1 -3 -9 -11
-0 -14 -11 -8 -7 -1 -10 -36 -0 -0 -0 -0 -0 -0 -0 -0 -2 -6 -18 -78 -17 -14 -79 -2 -9 -7 -15 -0 -4 -5 -0 -0 -0 -0 -2 -7 -6 -10 -1 -1 -4 -0 -0 -14 -0 -0 -0 -3 -10
-0 -0 -0 -5 -3 -7 -5 -23 -0 -3 -3 -0 -0 -0 -0 -0 -0 -9 -0 -10 -52 -65 -33 -5 -3 -12 -18 -25 -0 -0 -0 -0 -0 -0 -21 -23 -4 -1 -4 -1 -4 -2 -0 -0 -0 -0 -0 -4 -5
-13 -20 -29 -11 -10 -3 -4 -11 -6 -0 -0 -0 -0 -0 -0 -0 -0 -1 -2 -3 -9 -16 -18 -26 -33 -33 -81 -0 -0 -0 -0 -0 -0 -14 -3 -2 -2 -1 -8 -4 -5 -0 -0 -0 -0 -0 -0 -0 -1
-0 -2 -13 -0 -0 -4 -9 -13 -0 -0 -0 -0 -0 -0 -0 -0 -2 -3 -3 -19 -34 -3 -0 -0 -0 -75 -0 -0 -0 -0 -1 -0 -4 -0 -1 -1 -1 -14 -4 -1 -0 -1 -0 -0 -7 -0 -0 -0 -0
Wind_Speed
22 18 16 16 13 8 17 14 14 12 21 24 23 20 20 19 17 14 20 22 26 12 14 14 14 15 15 16 17 17 18 17 17 17 17 17 17 17 17 17 17 17 17 17 17 17 18 19 20
22 20 18 12 8 23 19 18 18 15 20 22 22 23 23 21 21 18 18 21 20 17 15 13 14 14 15 15 16 16 16 16 17 18 18 19 19 19 19 19 19 19 19 19 19 20 20 20 22
21 18 19 7 6 8 12 11 18 17 18 17 18 22 19 16 17 14 15 17 16 14 14 13 12 14 15 16 16 17 17 17 18 18 19 19 20 20 20 20 20 21 21 21 22 22 22 22 23
21 18 18 21 24 25 12 10 20 22 15 20 17 19 20 17 15 14 13 16 17 16 15 15 15 15 15 16 17 18 19 20 19 20 20 21 21 22 22 22 22 22 23 23 24 24 24 24 23
22 22 22 22 5 6 12 14 15 12 8 26 22 17 17 16 17 15 13 15 14 16 15 16 16 16 17 17 18 19 20 21 21 22 22 22 22 23 23 23 23 24 25 26 26 27 26 26 25
22 23 23 24 28 18 12 13 13 14 18 24 18 17 16 17 17 14 15 12 12 16 15 15 16 17 18 18 19 20 20 21 22 23 24 24 23 24 24 24 25 26 26 27 28 28 28 28 28
22 23 23 25 19 24 13 14 14 13 16 21 22 16 15 18 17 16 17 16 25 19 17 16 18 18 19 20 20 21 21 22 23 25 26 26 24 25 25 26 25 27 27 27 27 28 28 27 27
23 21 25 26 26 30 19 14 9 13 11 4 21 10 15 15 15 16 14 15 17 17 16 16 16 17 19 20 20 21 22 22 23 26 29 29 27 27 27 26 25 28 29 29 29 28 26 26 26
23 20 20 22 22 6 12 8 12 13 10 13 18 15 14 14 15 15 14 14 16 17 18 18 17 16 17 17 17 19 20 22 23 27 30 30 30 30 32 32 32 32 32 33 33 31 30 30 30
18 17 18 25 23 13 10 9 11 10 11 9 12 13 12 13 13 13 11 13 14 15 17 18 20 19 18 20 17 21 23 25 25 27 30 31 33 33 34 35 37 38 38 37 36 34 34 32 29
17 18 24 26 23 23 19 9 7 17 14 8 10 10 10 11 11 13 13 12 13 14 16 16 18 21 21 21 23 24 25 26 28 29 30 32 33 34 35 36 38 39 40 39 41 38 36 38 36
10 16 21 26 24 27 26 10 8 11 13 17 11 11 9 9 10 11 11 12 12 14 16 18 19 19 22 22 23 25 26 28 29 30 31 34 34 36 37 38 39 39 39 40 39 40 42 43 43
6 17 15 20 19 17 19 12 10 11 12 13 10 9 8 7 9 11 11 11 12 14 16 17 17 19 21 24 25 26 26 29 29 31 32 32 33 37 37 40 40 39 37 37 41 40 39 40 39
9 7 12 12 14 15 17 13 11 10 13 13 11 10 7 6 8 9 9 10 11 13 15 15 17 20 22 25 26 27 27 30 29 31 32 30 34 38 37 40 39 39 37 39 41 40 41 41 41
21 15 10 10 13 17 17 17 7 10 13 13 9 9 7 8 6 7 7 9 10 13 14 14 17 21 23 26 26 27 27 29 30 32 34 30 34 37 36 37 40 40 40 42 40 40 40 40 41
8 8 9 4 6 10 13 17 8 5 9 10 6 4 5 6 5 6 7 9 12 12 15 18 20 22 23 25 25 26 28 29 32 35 35 33 36 37 37 39 39 41 40 42 42 41 39 41 43
5 9 7 21 4 8 7 20 9 8 9 12 9 5 4 5 6 7 8 11 13 14 16 18 20 23 24 24 25 28 30 32 34 36 37 38 38 37 37 38 39 40 41 41 43 41 45 46 46
4 5 7 9 4 8 7 11 7 9 11 12 11 8 6 5 4 6 9 11 12 14 16 19 21 24 25 25 28 30 32 34 36 38 38 38 36 40 41 39 39 41 43 44 44 47 46 46 46
28 28 27 26 7 9 11 16 7 6 10 15 14 9 6 4 3 5 8 10 11 15 17 19 21 24 26 27 31 32 35 38 39 39 38 40 44 41 42 42 43 43 46 47 43 45 46 46 44
28 22 24 17 14 18 20 22 19 22 13 15 17 15 11 3 3 5 7 10 12 14 18 19 22 24 26 29 31 33 36 38 39 39 42 48 41 42 43 44 46 45 44 43 45 45 48 47 45
16 17 18 24 14 14 18 21 20 14 10 12 13 14 11 4 4 6 7 9 11 14 18 19 23 26 26 31 33 36 39 39 41 45 46 43 46 44 46 45 42 42 45 46 47 44 43 46 43
12 23 25 19 23 21 20 35 12 14 8 8 11 11 9 7 5 8 7 8 15 18 18 20 22 25 29 32 36 41 42 45 46 46 46 46 44 46 40 43 43 44 44 43 41 42 41 40 42
19 25 24 26 23 24 14 25 11 17 4 5 8 8 9 8 9 7 8 11 14 19 18 21 22 26 29 33 38 41 43 44 45 46 46 44 44 47 44 46 44 42 41 41 41 40 37 35 34
26 29 27 22 9 12 21 31 36 18 14 11 6 9 11 8 10 10 14 17 21 21 19 20 26 27 30 36 38 39 42 44 47 44 44 47 46 43 42 43 42 40 41 38 38 37 36 35 33
13 20 26 23 16 10 26 19 7 8 7 17 6 9 8 9 12 14 16 18 18 19 23 26 28 31 33 34 35 37 39 42 41 45 47 47 43 42 41 41 40 37 36 36 37 36 34 33 33
23 14 22 34 33 32 20 23 15 18 19 19 19 22 12 11 18 19 18 23 25 26 27 32 29 33 35 33 36 37 39 40 43 46 44 40 38 37 35 37 37 35 35 35 33 33 31 32 31
20 18 23 24 28 33 30 16 23 21 18 18 21 22 20 20 17 23 25 27 27 28 34 31 33 35 29 33 37 37 40 43 45 43 38 36 35 31 35 35 35 34 34 33 32 31 31 31 30
12 20 27 23 28 30 27 28 20 16 18 23 24 24 24 25 26 26 23 27 28 28 30 30 34 30 32 35 38 42 43 44 43 38 36 35 31 31 32 32 32 30 31 29 30 29 29 30 30
12 14 19 20 21 30 33 21 19 19 22 23 24 27 26 25 28 30 32 34 30 32 35 35 35 34 36 37 40 42 42 42 38 36 33 30 31 31 32 29 29 28 28 28 26 26 26 30 29
23 24 26 25 28 28 30 28 15 19 21 24 25 26 27 30 32 34 35 34 38 38 39 38 38 38 38 39 40 41 42 39 35 33 33 33 31 29 26 28 25 23 28 28 25 23 27 27 27
Wind_Direction
258 220 189 200 350 50 320 360 349 27 19 31 29 40 31 9 1 11 82 93 113 26 35 24 23 17 18 17 18 17 17 13 10 8 7 2 359 356 355 354 355 356 352 347 343 338 331 322 318
261 233 193 210 347 297 288 336 320 10 31 37 31 45 34 33 44 50 50 78 74 54 40 23 20 17 16 11 12 8 5 2 1 2 3 5 2 1 1 2 1 356 350 344 340 333 330 325 317
241 211 231 92 171 339 319 345 298 316 10 33 41 32 15 25 16 34 54 65 44 27 27 25 12 10 8 7 5 3 359 356 354 352 354 352 352 349 347 343 344 343 343 341 337 332 328 323 320
258 195 186 225 301 299 331 332 319 313 343 27 38 13 20 31 32 34 34 60 56 53 39 35 23 12 9 5 2 360 2 4 1 358 355 350 349 347 345 342 340 340 339 335 331 328 325 323 322
206 217 207 222 33 38 52 14 358 12 332 25 24 28 32 37 29 29 46 63 53 42 39 30 27 21 17 10 4 2 4 5 358 358 354 351 351 348 344 340 342 341 335 331 328 324 323 320 319
209 199 221 250 266 274 67 48 50 32 354 349 41 42 35 51 33 48 48 58 75 52 34 30 28 25 20 17 13 8 8 8 2 359 355 351 349 346 343 340 339 335 334 331 327 324 320 317 316
193 211 216 260 309 217 320 27 8 4 352 309 261 30 53 59 72 56 35 37 66 48 44 41 38 37 31 26 24 21 17 15 10 3 358 354 355 352 348 344 342 340 337 334 330 325 321 318 316
193 215 238 242 263 263 316 3 23 360 23 101 349 38 60 54 52 40 27 16 36 39 37 47 48 48 38 32 32 29 24 20 12 360 350 352 354 350 349 349 345 340 337 334 332 329 326 321 317
201 208 218 258 264 332 354 23 3 8 42 20 30 47 59 61 44 37 29 38 40 40 42 37 38 33 38 39 33 27 19 15 10 1 352 352 349 347 343 340 338 336 334 330 327 325 322 319 317
175 186 206 289 273 355 15 32 36 91 47 18 22 40 58 56 39 59 51 46 41 45 34 22 5 9 25 21 35 16 6 357 359 358 354 351 345 345 339 335 333 331 328 328 327 326 322 320 318
175 195 230 289 292 291 316 21 29 321 350 56 67 46 39 45 59 40 51 49 40 26 24 22 12 3 6 6 360 359 359 356 352 353 354 350 347 345 342 337 334 330 328 327 323 323 322 320 318
157 187 224 292 306 271 280 8 358 359 344 8 58 65 45 32 26 30 35 36 38 30 21 16 7 4 1 3 0 355 354 352 349 349 349 345 344 342 340 338 335 334 332 328 328 324 318 315 313
23 218 327 318 317 300 301 318 332 6 340 334 26 44 20 24 16 25 33 31 20 16 17 14 15 11 3 360 354 351 353 347 347 346 345 342 344 340 338 336 334 333 333 333 328 324 323 320 318
360 342 344 335 328 327 313 317 324 342 333 329 333 338 350 3 3 14 3 3 10 11 9 13 10 2 358 353 352 349 352 346 348 347 345 344 341 338 335 333 333 331 332 330 327 325 323 320 319
311 325 337 335 325 317 312 307 326 333 334 323 329 325 342 345 6 354 357 358 359 358 0 5 1 354 352 350 351 348 351 347 347 346 344 344 341 338 336 334 332 331 329 326 325 323 322 321 320
330 331 315 292 312 330 333 315 290 332 344 341 333 333 337 346 350 358 3 359 354 358 349 345 348 348 348 351 350 349 350 346 344 341 341 343 339 338 336 333 331 328 327 324 321 320 320 319 317
346 333 307 320 185 321 327 319 342 344 340 334 340 329 328 338 352 3 2 349 348 347 345 343 347 347 348 350 349 348 345 344 341 340 338 336 336 336 334 332 330 329 327 324 321 319 316 313 312
321 318 331 334 237 324 316 330 337 328 324 324 326 318 303 315 334 348 344 349 349 346 344 343 346 346 346 347 345 344 342 340 339 337 336 335 336 334 330 329 328 327 324 321 319 315 313 311 309
302 308 308 307 356 320 331 319 301 320 329 321 317 309 293 287 325 339 342 346 350 345 345 344 346 347 345 345 341 339 338 336 336 335 335 335 331 332 330 327 325 324 320 317 317 315 312 311 310
308 312 303 314 322 315 313 308 303 302 311 319 318 313 314 284 319 332 334 339 350 347 343 343 344 345 344 343 341 340 337 336 335 334 333 329 330 330 328 325 323 322 321 319 317 315 311 308 308
322 317 311 311 332 336 326 311 302 291 292 314 325 324 318 302 302 319 323 335 340 342 342 341 342 342 344 341 339 338 336 335 334 332 331 332 328 328 326 324 326 323 320 318 317 315 313 309 307
335 325 312 321 314 319 320 312 296 317 282 308 325 329 333 331 337 324 323 334 329 337 340 341 340 341 340 341 339 336 335 333 332 332 331 330 330 328 331 326 324 322 322 320 319 316 315 315 310
316 331 319 314 318 318 315 312 278 252 291 324 346 357 351 346 332 341 341 343 346 337 334 333 339 340 339 340 339 336 335 334 333 332 330 332 331 328 328 326 326 325 324 321 318 317 317 318 316
316 314 317 319 295 245 324 320 303 298 329 359 354 347 343 351 357 343 341 336 331 328 328 335 337 337 339 338 336 336 334 336 334 334 333 331 331 331 331 328 325 324 322 323 321 321 320 319 317
342 334 320 319 318 288 322 339 332 26 8 342 20 356 354 1 348 339 328 335 333 339 339 333 331 332 334 336 337 337 338 336 338 335 332 331 333 333 332 331 327 327 327 326 324 325 323 323 321
328 342 325 309 302 309 333 326 330 344 354 354 353 355 7 1 349 344 332 332 329 331 339 336 333 334 333 334 338 337 338 340 337 334 333 335 336 337 340 338 332 330 331 328 331 334 332 327 324
337 335 334 322 315 303 309 341 323 331 346 350 349 346 346 351 351 343 336 339 340 334 332 327 325 327 332 335 336 340 339 338 336 336 337 337 339 342 341 339 336 335 334 337 339 340 337 335 332
335 329 322 323 315 309 309 328 331 339 348 345 348 350 344 340 342 344 348 338 334 328 333 336 337 340 339 339 339 337 336 336 338 339 338 339 342 344 345 344 343 345 344 343 344 346 340 338 335
358 341 340 332 328 314 309 326 345 338 337 337 341 344 344 342 340 337 335 337 348 343 336 338 338 337 335 335 335 336 337 337 339 339 340 343 342 343 343 347 347 350 350 352 354 353 350 337 347
326 322 321 316 313 313 312 317 350 343 344 341 342 342 342 342 339 338 338 344 342 342 338 338 335 332 334 334 335 336 334 338 341 343 339 338 341 347 353 353 359 2 353 352 2 4 351 343 341